Location: Lesignano de� Bagni
(44.6500°N, 10.3000°E)
Time: 15:15:15
(UTC+00:00)

Cosmos 2219 Rocket - Pass Details

Date: 03 March 2021
Orbit: 826 x 848 km, 71.0° (Epoch: 22 April)

Event Time Altitude Azimuth Distance (km) Brightness Sun altitude
Rises 19:22:36 0° 202° (SSW) 3,351 5.4 -24.3°
Reaches altitude 10° 19:25:01 10° 202° (SSW) 2,423 4.6 -24.7°
Maximum altitude 19:30:35 87° 113° (ESE) 837 2.0 -25.7°
Drops below altitude 10° 19:36:12 10° 26° (NNE) 2,450 4.5 -26.6°
Sets 19:38:39 0° 26° (NNE) 3,391 5.3 -27.0°
